Weather History for Miami, FL

Change the Weather History Date:

Monday, December 31, 2012

  Actual Average Record
Temperature  
Mean Temperature 72 °F 68 °F  
Max Temperature 77 °F 77 °F 84 °F (1982)
Min Temperature 66 °F 60 °F 34 °F (1917)
Degree Days  
Heating Degree Days 0 2  
Month to date heating degree days 15 34  
Since 1 July heating degree days 16 37  
Cooling Degree Days 7 5  
Month to date cooling degree days 239 203  
Year to date cooling degree days 4679 4575  
Growing Degree Days 22 (Base 50)    
Moisture  
Dew Point 56 °F    
Average Humidity 61    
Maximum Humidity 68    
Minimum Humidity 53    
Precipitation  
Precipitation 0.00 in 0.06 in 1.15 in (1931)
Month to date precipitation 0.51 2.04  
Year to date precipitation 86.94 61.90  
Snow  
Snow 0.00 in - - ()
Month to date snowfall 0.0  
Since 1 July snowfall 0.0  
Snow Depth 0.00 in    
Sea Level Pressure  
Sea Level Pressure 30.24 in    
Wind  
Wind Speed 13 mph (East)    
Max Wind Speed 21 mph    
Max Gust Speed 26 mph    
Visibility 10 miles    
Events      
T = Trace of Precipitation, MM = Missing Value Source: NWS Daily Summary

Daily Weather History Graph

Daily Weather History Graph

Search for Another Location

Airport:

Trip Planner

Search our weather history database for the weather conditions in past years. The results will help you decide how hot, cold, wet, or windy it might be!

Date:

Astronomy

Dec. 31, 2012 Rise Set
Actual Time 7:07 AM EST 5:41 PM EST
Civil Twilight 6:42 AM EST 6:06 PM EST
Nautical Twilight 6:14 AM EST 6:35 PM EST
Astronomical Twilight 5:45 AM EST 7:03 PM EST
Moon 8:49 PM EST (12/31) 9:07 AM EST (12/31)
Length of Visible Light 11h 23m
Length of Day
10h 33m
Waning Gibbous, 90% of the Moon is Illuminated
Dec 31
Waning Gibbous
Jan 4
Last Quarter
Jan 11
New
Jan 18
First Quarter
Jan 26
Full

Hourly Weather History & Observations

Time (EST) Temp. Dew Point Humidity Pressure Visibility Wind Dir Wind Speed Gust Speed Precip Events Conditions
12:53 AM 66.9 °F 54.0 °F 63% 30.27 in 10.0 mi East 11.5 mph - N/A   Overcast
1:53 AM 66.9 °F 55.0 °F 66% 30.26 in 10.0 mi ENE 9.2 mph - N/A   Overcast
2:53 AM 68.0 °F 55.0 °F 63% 30.26 in 10.0 mi ENE 8.1 mph - N/A   Overcast
3:53 AM 68.0 °F 54.0 °F 61% 30.26 in 10.0 mi ENE 8.1 mph - N/A   Overcast
4:53 AM 68.0 °F 55.0 °F 63% 30.24 in 10.0 mi East 12.7 mph - N/A   Overcast
5:53 AM 66.9 °F 55.0 °F 66% 30.24 in 10.0 mi East 12.7 mph - N/A   Mostly Cloudy
6:53 AM 66.9 °F 54.0 °F 63% 30.25 in 10.0 mi East 9.2 mph - N/A   Mostly Cloudy
7:53 AM 68.0 °F 55.0 °F 63% 30.26 in 10.0 mi East 13.8 mph - N/A   Scattered Clouds
8:53 AM 71.1 °F 55.9 °F 59% 30.29 in 10.0 mi East 17.3 mph - N/A   Scattered Clouds
9:53 AM 72.0 °F 55.9 °F 57% 30.30 in 10.0 mi East 20.7 mph - N/A   Mostly Cloudy
10:53 AM 73.0 °F 55.9 °F 55% 30.30 in 10.0 mi ENE 15.0 mph 23.0 mph N/A   Mostly Cloudy
11:53 AM 75.0 °F 57.0 °F 53% 30.29 in 10.0 mi ESE 12.7 mph 21.9 mph N/A   Mostly Cloudy
12:53 PM 75.0 °F 57.0 °F 53% 30.27 in 10.0 mi East 15.0 mph - N/A   Mostly Cloudy
1:53 PM 75.0 °F 57.0 °F 53% 30.24 in 10.0 mi ESE 15.0 mph 23.0 mph N/A   Mostly Cloudy
2:53 PM 75.0 °F 57.0 °F 53% 30.22 in 10.0 mi ESE 13.8 mph 23.0 mph N/A   Mostly Cloudy
3:53 PM 73.0 °F 57.9 °F 59% 30.22 in 10.0 mi East 12.7 mph - N/A   Mostly Cloudy
4:53 PM 72.0 °F 55.9 °F 57% 30.22 in 10.0 mi ESE 13.8 mph - N/A   Scattered Clouds
5:53 PM 70.0 °F 57.0 °F 63% 30.20 in 10.0 mi East 15.0 mph - N/A   Scattered Clouds
6:53 PM 70.0 °F 55.9 °F 61% 30.20 in 10.0 mi ESE 13.8 mph - N/A   Mostly Cloudy
7:53 PM 69.8 °F 55.4 °F 60% 30.21 in 10.0 mi East 12.7 mph - N/A   Mostly Cloudy
8:53 PM 71.6 °F 57.2 °F 60% 30.21 in 10.0 mi ESE 15.0 mph 20.7 mph N/A   Mostly Cloudy
9:53 PM 71.6 °F 57.2 °F 60% 30.21 in 10.0 mi ESE 10.4 mph - N/A   Mostly Cloudy
10:53 PM 71.1 °F 59.0 °F 66% 30.21 in 10.0 mi SE 5.8 mph - N/A   Mostly Cloudy
11:53 PM 71.1 °F 57.0 °F 61% 30.20 in 8.0 mi ESE 10.4 mph - N/A   Mostly Cloudy